EHI
0 0 0 0 0 0 0 0 0 0 1 2 4 8 13 14 16 22 27 29 26 19 15 17 19 17 18 20 20 19 18 15 14 13 11 9 6 2 0 0 0 0 0 0
0 0 0 0 0 0 0 0 0 0 1 2 4 7 10 11 15 23 29 32 31 26 22 23 24 23 23 25 23 21 18 16 16 16 13 9 5 2 1 0 0 0 0 0
0 0 0 0 0 0 0 0 0 0 0 1 2 4 6 9 15 24 31 34 36 33 31 32 33 31 30 30 28 24 19 16 16 16 14 11 7 4 3 2 1 1 0 0
0 0 0 0 0 0 0 0 0 0 0 0 1 3 5 7 14 23 32 36 36 35 36 39 40 37 33 30 28 24 18 15 14 15 15 14 11 8 5 3 2 2 1 0
0 0 0 0 0 0 0 0 0 0 0 0 0 1 2 5 10 18 30 38 39 38 37 39 41 37 33 29 26 22 19 16 15 16 16 15 13 9 5 2 1 1 1 0
0 0 0 0 0 0 0 0 0 0 0 0 0 0 0 2 6 13 25 38 43 41 37 36 36 34 32 31 28 24 20 18 17 16 14 13 10 6 3 2 1 1 0 0
0 0 0 0 0 0 0 0 0 0 0 0 0 0 0 2 5 12 23 37 45 42 35 31 29 30 32 33 29 22 18 16 15 14 12 9 6 4 3 3 2 1 0 0
0 0 0 0 0 0 0 0 0 0 0 0 0 0 1 3 7 13 22 34 42 39 33 27 24 25 29 30 26 19 14 12 11 11 10 6 4 3 3 3 3 2 1 0
0 0 0 0 0 0 0 0 0 0 0 0 0 0 1 3 9 14 20 28 34 35 31 25 21 21 24 25 22 16 13 11 9 9 8 5 4 3 3 3 3 3 2 1
0 0 0 0 0 0 0 0 0 0 0 0 0 0 0 3 9 14 17 22 26 30 30 25 19 19 20 21 19 16 12 9 7 6 5 5 4 3 3 4 4 3 3 3
0 0 0 0 0 0 0 0 0 0 0 0 0 0 0 2 8 14 16 17 22 26 28 25 20 17 17 19 20 17 11 7 5 4 4 5 5 4 4 4 4 4 4 4
0 0 0 0 0 0 0 0 0 0 0 0 0 0 0 1 6 12 15 16 20 23 24 24 22 18 18 21 22 19 13 7 4 3 4 5 6 6 5 4 3 3 4 5
0 0 0 0 0 0 0 0 0 0 0 0 0 0 1 3 6 11 15 16 18 20 20 22 24 24 24 22 21 18 14 9 6 4 3 4 6 6 5 3 2 3 4 4
0 0 0 0 0 0 0 0 0 0 0 0 0 0 1 3 6 10 13 15 17 17 18 22 26 28 28 23 19 16 14 10 7 4 3 4 5 5 5 4 3 3 3 3
0 0 0 0 0 1 1 1 1 1 1 0 0 0 1 4 7 9 12 16 18 18 19 23 27 29 28 23 18 14 12 10 8 5 3 3 4 5 5 4 3 3 3 3
0 0 0 0 0 1 2 2 2 2 1 0 0 1 4 7 11 12 15 21 23 22 23 25 27 27 25 22 17 13 10 8 7 6 4 3 4 4 5 4 3 3 3 3
0 0 0 0 0 1 2 1 2 3 2 2 2 5 8 12 14 15 18 24 26 26 27 28 27 24 22 21 16 11 7 5 6 6 5 4 4 4 4 5 4 3 3 3
0 0 0 0 0 0 0 1 3 5 5 4 6 10 13 15 18 18 19 22 24 25 27 27 25 21 19 19 16 10 6 4 4 4 5 5 4 4 4 4 3 3 3 3
0 0 0 0 0 0 0 1 4 6 6 6 7 11 15 18 20 22 22 21 21 22 24 24 22 18 16 15 14 11 7 4 3 3 4 5 6 5 4 3 2 2 3 2
0 0 0 0 0 0 1 1 3 4 5 6 6 9 14 17 19 23 25 23 21 22 23 24 22 17 14 14 15 14 9 6 4 3 3 4 5 6 6 4 3 2 1 1
0 0 0 0 0 0 2 2 1 2 5 8 8 9 14 18 20 24 27 25 23 23 24 24 23 18 15 14 16 15 10 7 5 4 3 3 4 4 4 3 2 1 0 0
0 0 0 0 0 0 1 2 1 2 6 9 11 13 18 24 28 30 28 25 23 23 23 25 22 18 16 16 16 13 9 6 4 3 3 2 1 2 2 1 1 1 0 0
1 0 1 1 1 2 3 3 3 4 6 8 11 16 20 26 30 30 26 22 22 23 22 22 21 17 15 15 14 10 7 6 5 3 2 1 1 1 1 1 0 0 0 0
2 2 3 4 5 6 7 6 5 5 7 9 11 15 19 21 22 21 20 20 21 22 20 20 19 16 14 11 8 6 5 6 6 4 2 1 1 2 2 1 0 0 1 1
4 3 4 5 6 7 7 7 7 8 9 11 12 13 15 16 15 13 13 15 18 19 19 19 18 14 10 7 4 2 3 5 5 3 1 1 2 3 2 1 0 0 0 0
3 2 3 3 4 4 4 5 7 9 10 12 12 12 12 12 12 10 10 11 14 16 18 19 17 12 8 5 2 1 1 2 2 1 0 1 2 3 2 1 0 0 0 0
Wind_Speed
4 5 1 3 4 3 2 1 3 4 2 2 1 1 1 4 5 6 6 7 8 9 6 6 7 8 8 8 8 8 8 7 6 4 4 3 3 2 2 3 4 5 4 5
6 1 4 3 3 2 2 1 2 3 3 3 2 2 0 3 5 6 7 8 9 7 5 6 6 7 8 8 9 8 8 8 7 5 4 3 2 2 2 2 3 4 4 4
3 4 1 2 0 1 1 3 2 1 3 5 4 4 2 1 1 3 4 5 6 8 8 7 7 8 7 8 9 9 8 8 7 6 3 2 2 1 1 1 2 3 4 4
3 4 1 1 1 3 2 3 3 2 4 2 2 1 5 3 3 3 5 6 6 6 6 6 7 7 8 8 7 7 7 6 6 6 5 5 4 3 3 2 2 2 3 4
3 1 1 2 3 4 3 2 3 3 4 3 3 2 7 2 3 5 4 5 5 6 8 8 7 7 7 6 6 5 5 6 5 6 6 6 4 3 2 2 2 2 2 3
4 3 3 4 1 2 4 6 6 6 6 2 1 1 6 4 6 4 3 4 5 6 6 6 5 5 4 5 5 5 6 5 6 6 6 6 6 4 3 3 3 2 2 2
3 3 3 2 1 3 5 7 5 6 5 4 2 1 9 7 5 5 5 5 5 6 6 5 6 6 5 6 6 6 7 6 6 6 6 6 6 6 5 4 4 3 2 2
3 5 4 3 6 5 4 9 8 5 4 4 3 4 8 4 3 2 4 5 6 6 6 6 5 6 6 6 7 7 7 6 6 6 5 4 4 4 3 4 3 3 3 2
7 6 5 3 3 9 6 3 7 8 3 1 5 6 8 1 1 1 4 5 6 6 6 6 5 6 6 6 7 7 7 6 6 5 5 4 4 4 4 3 3 2 2 2
9 3 4 3 4 4 6 9 6 7 6 2 5 4 5 5 4 3 5 6 6 5 5 5 5 5 5 5 5 6 7 6 6 5 5 4 3 3 3 3 3 3 2 2
6 4 4 3 3 5 5 5 6 5 6 7 2 8 7 8 7 8 7 6 6 6 6 5 5 4 4 4 5 5 6 5 5 5 4 4 3 2 2 2 3 3 2 2
5 6 3 6 3 2 4 7 9 7 4 5 5 9 5 5 6 6 6 5 5 5 4 4 4 4 4 5 5 5 5 5 5 5 4 4 3 3 2 2 2 2 2 2
7 7 2 6 5 1 3 4 4 7 7 6 5 9 3 0 2 4 5 5 4 4 4 4 4 4 4 4 4 4 4 4 4 4 4 3 3 3 2 2 2 2 2 2
8 6 7 9 8 4 4 4 5 7 6 5 8 8 5 3 4 5 5 5 5 5 5 5 5 4 4 4 4 4 4 4 4 5 4 3 3 3 2 2 2 2 2 2
6 5 4 4 4 3 4 5 7 6 8 9 9 8 10 8 8 7 5 6 6 6 6 6 6 5 5 5 4 4 4 4 4 5 4 4 3 3 2 2 2 2 2 2
4 5 3 1 2 2 1 2 5 4 4 5 3 7 7 2 3 3 5 7 8 7 7 7 6 6 6 6 5 4 4 4 4 5 4 3 3 3 3 3 3 3 3 2
3 6 5 2 1 2 2 3 3 2 2 4 6 7 2 2 5 7 7 8 8 8 7 7 7 6 6 6 6 5 5 4 4 4 4 4 4 3 3 3 3 3 3 3
6 5 4 3 3 4 7 2 3 4 1 1 3 3 3 4 2 1 3 6 6 6 6 6 5 5 4 5 5 5 5 5 4 4 4 4 4 4 3 3 3 3 3 3
4 8 5 4 3 3 3 0 2 3 0 1 2 1 1 3 4 3 1 3 5 5 5 5 5 5 5 6 7 7 5 4 4 3 4 4 4 4 4 3 3 3 3 3
5 5 6 5 5 6 6 2 2 3 1 2 1 1 2 3 3 2 1 2 3 3 3 4 5 6 6 5 6 7 6 5 4 3 4 4 5 5 4 3 3 2 3 2
4 5 4 4 3 5 4 5 1 4 5 2 1 2 3 2 2 1 1 2 4 4 4 5 6 5 5 6 7 6 5 4 3 4 4 4 4 4 4 3 3 3 3 3
3 3 3 4 3 6 4 2 3 4 1 1 1 2 4 3 3 3 3 3 5 5 5 6 6 5 4 5 6 6 4 3 4 4 4 4 4 4 4 4 3 3 3 3
2 3 4 5 5 4 3 1 1 1 2 1 2 3 4 4 4 4 4 4 5 5 4 4 6 6 4 4 5 5 4 4 5 5 4 4 4 3 4 4 4 3 2 2
1 1 3 1 2 3 3 2 3 2 1 2 3 3 4 5 4 4 4 4 5 4 4 3 5 5 4 3 3 4 5 5 6 6 5 4 4 4 3 3 3 3 2 2
2 1 3 1 1 2 3 3 2 2 3 4 4 4 4 5 4 4 4 4 4 4 4 3 3 4 3 3 3 3 4 5 5 5 4 4 4 4 3 3 2 2 1 2
2 3 4 4 5 3 2 3 1 2 3 3 4 4 3 3 4 3 3 2 3 3 3 3 3 3 3 3 3 3 4 5 6 4 4 3 3 4 4 4 3 4 2 2
Wind_Direction
36 68 145 209 185 179 187 233 285 277 288 113 169 228 210 175 173 176 179 185 195 210 203 172 170 168 166 171 174 177 174 173 166 164 173 175 192 193 199 205 201 197 192 184
38 310 238 203 179 173 180 257 291 315 8 86 84 3 277 191 199 189 190 197 200 203 186 176 165 168 174 177 180 179 181 179 181 182 176 169 164 176 194 203 199 197 193 190
174 241 240 172 180 130 228 205 219 227 23 38 64 357 328 276 216 197 195 205 202 197 190 184 176 178 174 182 187 188 186 183 184 173 148 124 105 106 146 192 201 200 195 199
226 257 235 210 219 152 261 243 186 138 89 355 55 285 287 271 269 223 209 202 202 190 176 179 180 179 182 191 188 186 179 177 179 170 170 174 180 191 197 191 192 192 195 199
233 231 171 232 224 173 202 64 87 90 108 53 24 118 285 318 261 250 231 204 191 180 176 180 181 185 185 177 177 177 171 175 175 177 179 179 188 197 176 164 180 196 201 205
234 244 218 216 214 163 131 71 54 49 68 53 313 151 276 252 235 243 218 188 175 167 168 166 161 158 161 155 163 163 172 182 177 180 181 182 186 182 172 185 195 201 203 210
301 292 256 195 107 47 90 83 33 10 19 262 287 212 252 257 247 220 200 182 165 160 158 158 161 159 173 167 169 170 173 183 182 182 187 190 191 186 189 193 199 199 203 217
188 280 256 201 180 168 153 134 152 181 209 278 330 251 260 276 275 220 182 163 155 163 164 166 171 173 180 179 175 171 178 180 180 182 187 184 188 190 195 195 193 199 207 216
176 248 283 254 192 137 131 144 151 124 143 335 296 293 304 321 12 144 160 157 162 169 168 165 167 176 178 179 171 173 177 176 180 182 176 174 183 187 191 186 181 191 200 202
156 218 289 306 85 42 134 140 106 114 136 222 297 287 256 252 228 202 191 182 177 168 166 164 169 179 179 177 168 164 171 176 176 173 176 176 178 179 178 173 180 189 196 191
145 164 300 358 166 165 111 99 102 106 142 149 218 269 230 222 211 199 201 193 183 179 174 170 169 168 163 149 152 162 163 159 163 166 168 163 163 162 152 166 186 190 188 185
145 129 232 266 263 183 163 162 146 146 188 163 166 262 267 234 214 194 196 190 181 177 170 163 156 145 143 149 154 160 158 159 160 160 158 160 154 151 157 174 186 178 178 178
139 121 95 337 337 32 144 148 140 120 115 145 163 260 301 332 190 192 191 184 172 169 156 143 138 143 151 153 157 158 157 155 147 143 148 151 151 149 160 167 161 149 151 151
121 121 159 189 212 193 168 160 149 126 141 183 213 246 286 255 221 210 199 182 169 168 163 158 158 160 158 154 157 156 149 144 142 140 140 147 150 148 150 142 130 131 137 140
115 144 186 212 217 179 180 178 168 171 176 180 220 224 246 229 212 205 189 167 161 169 176 178 175 169 159 154 157 149 137 133 135 135 136 150 149 139 128 117 114 117 118 122
94 141 144 218 230 195 179 190 175 186 178 202 219 250 254 229 157 170 174 170 178 189 189 184 175 170 170 167 160 148 143 141 137 139 149 150 141 136 132 126 120 113 102 95
109 121 120 211 273 100 242 228 177 173 184 178 205 236 242 163 179 191 188 182 188 193 188 182 180 178 174 165 156 154 149 137 137 145 148 145 142 136 133 129 117 111 105 96
134 115 122 133 106 194 240 245 149 138 146 258 254 260 228 201 178 159 175 183 191 191 187 183 172 163 156 145 138 135 133 136 141 144 144 145 143 138 131 122 116 105 101 103
142 131 118 123 152 245 279 168 141 150 282 308 254 243 133 128 79 24 63 168 184 185 180 165 153 148 142 140 139 132 131 129 131 149 155 153 149 143 136 131 122 113 108 98
60 89 111 123 142 209 231 284 315 122 290 301 271 177 157 115 116 261 337 109 124 127 131 131 131 126 133 139 135 134 139 138 150 165 158 150 148 147 146 142 126 112 113 107
44 50 99 135 167 247 262 301 358 156 231 284 246 185 144 133 185 212 44 83 99 106 113 118 118 121 133 139 138 140 143 155 153 137 136 136 142 145 137 127 120 119 111 102
150 130 149 134 155 240 310 358 158 201 205 102 92 99 105 100 82 72 72 83 91 96 106 117 119 116 117 130 139 144 155 153 132 130 129 131 133 134 128 121 112 110 111 109
148 180 174 178 203 258 308 279 286 157 134 107 97 90 104 95 78 73 78 79 83 94 102 110 121 118 122 129 142 150 154 140 133 129 129 123 117 112 116 122 126 118 115 115
331 116 114 75 311 321 338 -0 20 43 104 101 109 108 97 92 91 87 92 92 92 91 94 97 112 118 119 119 125 136 138 142 140 140 139 133 127 117 111 112 119 127 135 140
261 103 102 94 279 345 355 357 6 40 67 76 77 88 97 98 95 102 107 104 103 94 85 88 104 117 123 118 108 117 129 138 139 140 139 132 127 129 120 105 92 122 136 171
239 179 160 199 217 188 256 306 345 58 64 76 81 66 64 101 120 115 108 105 100 103 103 105 109 116 122 122 116 118 134 144 145 147 149 146 139 138 138 133 100 61 75 77